Find Starlink 38397

NORAD ID: 100514 Int'l Des: 2026-197 Owner: SPXS Country: US Constellation: starlink operational

現在のビュー

3D地球を読み込み中...

About Starlink 38397

Starlink 38397 (NORAD 100514) is a starlink constellation satellite launched Aug 25, 2026 by SPXS of US. with a mass of 575.00 kg.

次回通過

Passes for default location (London). Set your location on the main map for personalized predictions.

高度履歴

Loading altitude history...

軌道要素

1 A0514U 26197N 26263.61100969 .00144282 00000-0 85058-3 0 9996
2 A0514 69.9991 121.4686 0004350 257.9849 102.0863 15.77596809 4000
Epoch: Sep 20, 2026 • Age: 9 hours

現在のステータス

高度 348.8 km
遠地点 / 近地点 N/A
速度 7.70 km/s
衛星直下点 57.46°N, 154.08°E
打ち上げ日 Aug 25, 2026
運用期間 26 days
タイプ internet

技術仕様

分類 Payload
質量 575.00 kg
乾燥質量 530.00 kg
長さ 0.30 m
スパン 29.00 m
形状 ? Box + pan
製造者 SPXS
バスタイプ Starlink V2MO
フェーズステータス In Orbit
所有者/国 SPXS/US

Most Searched